Location: Bambrugge
(50.9212°N, 3.9299°E)
Time: 20:42:39
(UTC+00:00)

SL-16 R/B - Pass Details

Date: 15 August 2024
Orbit: 842 x 845 km, 71.0° (Epoch: 10 September)

Event Time Altitude Azimuth Distance (km) Brightness Sun altitude
Exits shadow 01:26:47 - 275° (W) 2,716 4.6 -21.7°
Reaches altitude 10° 01:27:43 10° 281° (WNW) 2,470 4.5 -21.6°
Maximum altitude 01:31:42 19° 327° (NNW) 1,903 4.3 -21.4°
Drops below altitude 10° 01:35:43 10° 12° (NNE) 2,478 5.7 -21.1°
Sets 01:38:55 0° 30° (NNE) 3,416 7.0 -20.8°
